Flag for Germany Weather for the Past 2 Weeks in Schloss Holte-Stukenbrock, North Rhine-Westphalia, Germany

Now
34 °F

Passing clouds.


Feels Like: 30 °F
Forecast: 29 / 36 °F
Wind: 5 mph from West

Location: Paderborn / Lippstadt

Current Time: Feb 14, 2016 at 8:12:48 PM

Latest Report: Feb 14, 2016 at 7:20 PM


Visibility: 4 mi

Pressure: 29.33 "Hg

Humidity: 100%

Dew point: 34 °F

Location of Schloss Holte-StukenbrockLocation

Historic Weather in Schloss Holte-Stukenbrock — Graph

°F

Schloss Holte-Stukenbrock Temperature Yesterday

Maximum temperature yesterday: 41 °F (at 1:50 PM)
Minimum temperature yesterday: 27 °F (at 4:50 AM)
Average temperature yesterday: 33 °F

High & Low Weather Summary for the Past Weeks

 TemperatureHumidityPressure
High52 °F (Feb 6, 11:50 AM)100% (Jan 30, 8:50 PM)30.27 "Hg (Jan 30, 8:50 PM)
Low27 °F (Feb 13, 4:50 AM)53% (Feb 3, 3:20 PM)28.82 "Hg (Feb 9, 5:50 PM)
Average40 °F81%29.65 "Hg
* Reported Jan 30 6:20 PM — Feb 14 6:50 PM, Schloss Holte-Stukenbrock, Weather by CustomWeather, © 2016

Note: Actual official high and low records may vary slightly from our data, if they occured in-between our weather recording intervals... More about our weather records

Advertising

Schloss Holte-Stukenbrock Weather History for the Previous 24 Hours

 ConditionsComfort  
Time TempWeatherWind HumidityBarometerVisibility
6:50 PM
Sun, Feb 14
34 °FPassing clouds.5 mph100%29.33 "Hg4 mi
6:20 PM34 °FPartly cloudy.5 mph100%29.30 "Hg4 mi
5:50 PM34 °FLight rain. Partly cloudy.5 mph100%29.27 "Hg4 mi
5:20 PM34 °FLight rain. Fog.7 mph100%29.27 "Hg3 mi
4:50 PM36 °FLight rain. Fog.6 mph93%29.24 "Hg2 mi
4:20 PM36 °FFog.5 mph100%29.24 "Hg2 mi
3:50 PM36 °FFog.3 mph100%29.21 "Hg2 mi
3:20 PM36 °FFog.3 mph100%29.21 "Hg2 mi
2:50 PM36 °FFog.3 mph100%29.18 "Hg2 mi
2:20 PM36 °FFog.3 mph100%29.18 "Hg2 mi
1:50 PM36 °FFog.6 mph100%29.18 "Hg4 mi
1:20 PM36 °FFog.7 mph100%29.15 "Hg2 mi
12:50 PM37 °FFog.5 mph93%29.15 "Hg2 mi
12:20 PM36 °FFog.5 mph100%29.15 "Hg2 mi
11:50 AM37 °FFog.3 mph93%29.12 "Hg2 mi
11:20 AM36 °FFog.3 mph100%29.12 "Hg1 mi
10:50 AM36 °FFog.5 mph100%29.12 "Hg2 mi
10:20 AM36 °FPartly sunny.2 mph100%29.09 "Hg5 mi
9:50 AM36 °FPartly sunny.2 mph100%29.09 "Hg5 mi
9:20 AM36 °FPartly sunny.3 mph93%29.09 "Hg5 mi
8:50 AM36 °FLight rain. Partly sunny.5 mph93%29.06 "Hg5 mi
8:20 AM34 °FLight rain. Partly sunny.2 mph100%29.06 "Hg5 mi
7:50 AM34 °FLight rain. Partly sunny.5 mph100%29.06 "Hg5 mi
7:20 AM34 °FLight rain. Passing clouds.5 mph93%29.03 "Hg5 mi
6:50 AM34 °FLight rain. Passing clouds.3 mph93%29.03 "Hg6 mi
6:20 AM34 °FLight rain. Passing clouds.5 mph93%29.03 "Hg6 mi
5:50 AM34 °FRain. Passing clouds.5 mph93%29.03 "Hg6 mi
5:20 AM34 °FRain. Partly cloudy.5 mph93%29.03 "Hg6 mi
4:50 AM34 °FRain. Partly cloudy.6 mph93%29.03 "Hg6 mi
4:20 AM34 °FRain. Partly cloudy.7 mph93%29.03 "Hg6 mi
3:50 AM34 °FRain. Passing clouds.7 mph93%29.03 "Hg6 mi
3:20 AM34 °FLight rain. Passing clouds.7 mph100%29.03 "Hg6 mi
2:50 AM36 °FLight rain. Passing clouds.9 mph93%29.03 "Hg6 mi
2:20 AM36 °FLight rain. Passing clouds.8 mph93%29.03 "Hg6 mi
1:50 AM36 °FLight rain. Passing clouds.8 mph87%29.03 "Hg6 mi
1:20 AM36 °FLight rain. Passing clouds.12 mph87%29.03 "Hg6 mi
12:50 AM36 °FLight rain. Passing clouds.12 mph87%29.03 "Hg6 mi
12:20 AM36 °FLight rain. Passing clouds.9 mph87%29.06 "Hg6 mi
11:50 PM
Sat, Feb 13
34 °FLight rain. Passing clouds.9 mph93%29.06 "Hg6 mi
11:20 PM34 °FLight rain. Passing clouds.9 mph93%29.06 "Hg6 mi
10:50 PM34 °FLight rain. Passing clouds.12 mph93%29.06 "Hg6 mi
9:50 PM34 °FLight rain. Partly cloudy.12 mph93%29.09 "Hg6 mi
9:20 PM34 °FLight rain. Partly cloudy.12 mph87%29.09 "Hg6 mi
8:50 PM34 °FPartly cloudy.12 mph87%29.09 "Hg6 mi
8:20 PM34 °FPartly cloudy.12 mph87%29.12 "Hg6 mi
Weather by CustomWeather, © 2016

See weather overviewHow to use our weather pages